Location: Unnamed
(51.5169°N, 0.1311°W)
Time: 05:07:26
(UTC+01:00)

Vanguard 1 - Pass Details

Date: 12 August 2024
Orbit: 649 x 3825 km, 34.2° (Epoch: 16 September)

Event Time Altitude Azimuth Distance (km) Brightness Sun altitude
Rises 04:25:59 0° 268° (W) 5,945 13.6 -10.7°
Reaches altitude 10° 04:30:06 10° 259° (WSW) 5,354 13.3 -10.2°
Maximum altitude 04:43:44 30° 206° (SSW) 4,894 13.1 -8.5°
Drops below altitude 10° 05:01:29 10° 156° (SSE) 6,923 14.3 -6.3°
Sets 05:07:59 0° 148° (SSE) 7,893 14.7 -5.4°
